Ourzdine, Morocco

6:55 AM WEST on July 21, 2017 (GMT +0100)
Ourzdine

Weather History for 60230 - January, 2014

Change the Weather History Date:

Sunday, January 12, 2014

  Actual Average Record
Temperature  
Mean Temperature 58 °F -  
Max Temperature 70 °F 65 °F - ()
Min Temperature 46 °F 43 °F - ()
Degree Days  
Heating Degree Days 7    
Growing Degree Days 8 (Base 50)    
Moisture  
Dew Point 45 °F    
Average Humidity 66    
Maximum Humidity 93    
Minimum Humidity 25    
Precipitation  
Precipitation 0.00 in 0.05 in - ()
Sea Level Pressure  
Sea Level Pressure 30.23 in    
Wind  
Wind Speed 3 mph ()    
Max Wind Speed 9 mph    
Max Gust Speed -    
Visibility 4.8 miles    
Events      
T = Trace of Precipitation, MM = Missing Value Source: Averaged Metar Reports

Daily Weather History Graph

Daily Weather History Graph

Search for Another Location

Airport or City:

Trip Planner

Search our weather history database for the weather conditions in past years. The results will help you decide how hot, cold, wet, or windy it might be!

Date:

Astronomy

Jan. 12, 2014 Rise Set
Actual Time 7:32 AM WET 5:48 PM WET
Civil Twilight 7:06 AM WET 6:14 PM WET
Nautical Twilight 6:36 AM WET 6:44 PM WET
Astronomical Twilight 6:06 AM WET 7:14 PM WET
Moon 3:04 PM WET (1/12) 4:21 AM WET (1/12)
Length of Visible Light 11h 08m
Length of Day
10h 15m
Waxing Gibbous, 88% of the Moon is Illuminated
Jan 12
Waxing Gibbous
Jan 16
Full
Jan 24
Last Quarter
Jan 30
New
Feb 6
First Quarter

Hourly Weather History & Observations

Time (WET) Temp. Windchill Dew Point Humidity Pressure Visibility Wind Dir Wind Speed Gust Speed Precip Events Conditions
12:00 AM 52 °F - 44 °F 66% 30.19 in 5 mi ENE 2.3 mph - -   Clear
12:00 AM 51.8 °F - 44.6 °F 76% 30.18 in 5.0 mi ENE 2.3 mph - N/A   Unknown
1:00 AM 51.8 °F - 44.6 °F 76% 30.18 in 5.0 mi SW 4.6 mph - N/A   Unknown
2:00 AM 51.8 °F - 46.4 °F 82% 30.18 in 5.0 mi SSE 6.9 mph - N/A   Unknown
3:00 AM 50 °F - - % 30.21 in 5 mi SE 2.3 mph - -   Clear
3:00 AM 50.0 °F - 44.6 °F 82% 30.18 in 5.0 mi SE 2.3 mph - N/A   Unknown
4:00 AM 46.4 °F - 44.6 °F 93% 30.18 in 5.0 mi Calm Calm - N/A   Unknown
5:00 AM 46.4 °F - 44.6 °F 93% 30.21 in 5.0 mi Calm Calm - N/A   Unknown
6:00 AM 47 °F - 45 °F 89% 30.25 in 5 mi Calm Calm - -   Clear
6:00 AM 48.2 °F - 44.6 °F 87% 30.21 in 5.0 mi Calm Calm - N/A   Unknown
7:00 AM 46.4 °F 43.5 °F 44.6 °F 93% 30.24 in 5.0 mi SSE 5.8 mph - N/A   Unknown
8:00 AM 46.4 °F - 42.8 °F 87% 30.24 in 5.0 mi East 2.3 mph - N/A   Unknown
9:00 AM 49 °F - 46 °F 87% 30.29 in 5 mi ENE 2.3 mph - -   Clear
9:00 AM 48.2 °F - 46.4 °F 93% 30.27 in 5.0 mi ENE 2.3 mph - N/A   Unknown
10:00 AM 55.4 °F - 48.2 °F 77% 30.27 in 3.7 mi NE 2.3 mph - N/A   Unknown
11:00 AM 59.0 °F - 48.2 °F 67% 30.30 in 3.1 mi West 2.3 mph - N/A   Unknown
12:00 PM 61 °F - 47 °F 50% 30.26 in 3 mi NW 4.6 mph - -   Clear
12:00 PM 66.2 °F - 48.2 °F 52% 30.27 in 3.1 mi NW 4.6 mph - N/A   Unknown
1:00 PM 66.2 °F - 46.4 °F 49% 30.24 in 4.3 mi WNW 2.3 mph - N/A   Unknown
2:00 PM 68.0 °F - 42.8 °F 40% 30.18 in 5.0 mi NW 4.6 mph - N/A   Mostly Cloudy
3:00 PM 69 °F - 41 °F 25% 30.18 in 5 mi NW 4.6 mph - -   Clear
3:00 PM 69.8 °F - 41.0 °F 35% 30.21 in 5.0 mi NW 4.6 mph - N/A   Unknown
4:00 PM 69.8 °F - 41.0 °F 35% 30.21 in 5.0 mi ESE 4.6 mph - N/A   Unknown
5:00 PM 69.8 °F - 41.0 °F 35% 30.21 in 5.0 mi NW 4.6 mph - N/A   Unknown
6:00 PM 68 °F - 42 °F 27% 30.21 in 6 mi NW 4.6 mph - -   Clear
6:00 PM 68.0 °F - 41.0 °F 37% 30.24 in - NW 4.6 mph - N/A   Clear
7:00 PM 60.8 °F - 42.8 °F 52% 30.27 in - West 4.6 mph - N/A   Clear
8:00 PM 59.0 °F - 42.8 °F 55% 30.27 in - WSW 4.6 mph - N/A   Clear
9:00 PM 55 °F - 47 °F 68% 30.31 in 6 mi WSW 9.2 mph - -  
9:00 PM 55.4 °F - 48.2 °F 77% 30.30 in - WSW 9.2 mph - N/A   Clear
10:00 PM 53.6 °F - 50.0 °F 88% 30.30 in - WSW 9.2 mph - N/A   Clear
11:00 PM 53.6 °F - 50.0 °F 88% 30.04 in 4.3 mi SW 8.1 mph - N/A   Unknown